METAR Formatted Surface Weather Observation
Issued by NWS

Home | Current Version | Previous Version | Text Only | Print | Product List | Glossary On
Versions: 1 2 3 4 5 6 7 8 9 10 11 12 13 14 15 16 17 18 19 20 21 22 23 24 25 26 27 28
000
SAUS46 KLOX 250557
MTRNLC
METAR KNLC 250556Z AUTO 30007KT 10SM CLR 28/10 A2982 RMK AO2 SLP095
T02830100 10411 20283 53013



USA.gov is the U.S. government's official web portal to all federal, state and local government web resources and services.